FENGYUN 1C DEB *

Satellite information

Favourite Embed

Satellite Type and Status

DEBRISIN ORBIT

Key statistics

Satellite FENGYUN 1C DEB * at a glance.

Uptime

9715

Days in orbit

Revolutions

≈ 14.3

Per day

Orbit

SSO

Sun Synchronous Orbit

Inclination

98.6

Latest

Satellite identification and parameters

Extended collection of information and parameters for FENGYUN 1C DEB *.

Object identification

Identified? True

Debris? True

Object name: FENGYUN 1C DEB *

International designator: 1999-025EZX

Object number (NORAD): 46997

Object ID (CCSDS): 46997

Country: PEOPLES REPUBLIC OF CHINA (PRC)

Current information (Y/N): Y

RCS size: SMALL

Orbital parameters

Period: 100.843 minutes

Inclination: 98.5588 deg

SMA: 7176.707 km

Apoapsis: 816.449 km

Periapsis: 780.694 km

RAAN: 21.7939 deg

Eccentricy: 0.0024911

Argument of periapsis: 352.6348 deg

Mean anomaly: 70.0216 deg

Mean motion: 14.27956499 rev/day

Mean motion (dot): 0.00004485 rev/day2

B* drag term: 0.0018200701 1/REarth

Two-line elements (TLE)

Creation date: Dec. 8, 2025, 3:46 a.m.

Reference frame: TEME

Reference center: EARTH

Epoch: Dec. 7, 2025, 8:16 a.m. UTC

TLE line 0: 0 FENGYUN 1C DEB *

TLE line 1: 1 46997U 99025EZX 25341.34471389 .00004485 00000-0 18201-2 0 9999

TLE line 2: 2 46997 98.5588 21.7939 0024911 352.6348 70.0216 14.27956499623743

Live tracking on map

Real-time ground track for satellite FENGYUN 1C DEB *.

In-orbit conjunctions

A list of the most updated potential collisions computed for object FENGYUN 1C DEB *.

Target Orbit TCA Probability of collision Miss distance Type
COSMOS 1538 LEO 2025-11-04 16:25:37 0.000203385 190.0 (m) PAYLOAD
CZ-4C R/B SSO 2025-08-14 22:30:11 0.0007267307 137.0 (m) ROCKET BODY
COSMOS 1867 COOLANT LEO 2024-11-14 03:39:34 0.0002266762 525.0 (m) DEBRIS

Associated space launch

Chinese polar orbiting meteorological satellite

FENGYUN 1C DEB * was lifted into orbit during the mission ‘Long March 4B | Feng Yun 1C’, on board a Long March 4B space rocket.

The launch took place on May 10, 1999, 1:33 a.m. from Launch Complex 7.

For more information about the launch, click the button.

Launch to space Long March 4B | Feng Yun 1C
Long March 4B | Feng Yun 1C

Agency: N/A

Status: Launch Successful

Launch date: May 10, 1999, 1:33 a.m. UTC

Rocket: Long March 4B

Launch pad: Launch Complex 7

Location: Taiyuan Satellite Launch Center, People's Republic of China

...

Latest news about this satellite

There are no fresh news available about this satellite. Check back as we update our databases every day.


Newsletter sign-up

Weekly statistics, charts and insights to help you stay on top of the space industry.